Kahului, HI

9:13 PM HST on February 07, 2016 (GMT -1000)
Kahului

Weather History for PHOG - February, 2014

Change the Weather History Date:

Wednesday, February 12, 2014

  Actual Average Record
Temperature  
Mean Temperature 74 °F 72 °F  
Max Temperature 85 °F 81 °F 89 °F (1998)
Min Temperature 62 °F 63 °F 52 °F (1970)
Degree Days  
Heating Degree Days 0 0  
Month to date heating degree days 0 0  
Since 1 July heating degree days 0 0  
Cooling Degree Days 9 7  
Month to date cooling degree days 125 84  
Year to date cooling degree days 360 301  
Growing Degree Days 23 (Base 50)    
Moisture  
Dew Point 65 °F    
Average Humidity 74    
Maximum Humidity 93    
Minimum Humidity 55    
Precipitation  
Precipitation T in 0.06 in 1.17 in (1959)
Month to date precipitation 2.08 0.85  
Year to date precipitation 6.13 3.72  
Snow  
Snow 0.00 in - - ()
Month to date snowfall 0.0  
Since 1 July snowfall 0.0  
Snow Depth 0.00 in    
Sea Level Pressure  
Sea Level Pressure 29.97 in    
Wind  
Wind Speed 5 mph (NE)    
Max Wind Speed 16 mph    
Max Gust Speed 18 mph    
Visibility 10 miles    
Events      
T = Trace of Precipitation, MM = Missing Value Source: NWS Daily Summary

Daily Weather History Graph

Daily Weather History Graph

Search for Another Location

Airport or City:

Trip Planner

Search our weather history database for the weather conditions in past years. The results will help you decide how hot, cold, wet, or windy it might be!

Date:

Astronomy

Feb. 12, 2014 Rise Set
Actual Time 6:57 AM HST 6:22 PM HST
Civil Twilight 6:34 AM HST 6:45 PM HST
Nautical Twilight 6:08 AM HST 7:11 PM HST
Astronomical Twilight 5:42 AM HST 7:37 PM HST
Moon 4:50 PM HST (2/12) 5:15 AM HST (2/12)
Length of Visible Light 12h 10m
Length of Day
11h 25m
Waxing Gibbous, 96% of the Moon is Illuminated
Feb 12
Waxing Gibbous
Feb 14
Full
Feb 22
Last Quarter
Feb 28
New
Mar 8
First Quarter

Hourly Weather History & Observations

Time (HST) Temp. Heat Index Dew Point Humidity Pressure Visibility Wind Dir Wind Speed Gust Speed Precip Events Conditions
12:54 AM 69.1 °F - 64.9 °F 87% 30.01 in 10.0 mi WSW 4.6 mph - N/A   Clear
1:54 AM 68.0 °F - 64.9 °F 90% 30.00 in 10.0 mi Calm Calm - N/A   Clear
2:54 AM 64.9 °F - 63.0 °F 93% 29.99 in 10.0 mi Calm Calm - N/A   Clear
3:54 AM 64.9 °F - 62.1 °F 90% 29.98 in 10.0 mi South 4.6 mph - N/A   Clear
4:54 AM 64.9 °F - 62.1 °F 90% 29.97 in 10.0 mi SSE 6.9 mph - N/A   Clear
5:54 AM 63.0 °F - 60.1 °F 90% 29.98 in 10.0 mi SE 6.9 mph - N/A   Clear
6:54 AM 63.0 °F - 61.0 °F 93% 30.00 in 10.0 mi Calm Calm - N/A   Clear
7:54 AM 66.9 °F - 63.0 °F 87% 30.01 in 10.0 mi SE 6.9 mph - N/A   Clear
8:54 AM 73.9 °F - 66.9 °F 79% 30.02 in 10.0 mi Calm Calm - N/A   Clear
9:54 AM 78.1 °F - 66.0 °F 66% 30.02 in 10.0 mi SSE 4.6 mph - N/A   Partly Cloudy
10:54 AM 80.1 °F 81.9 °F 64.9 °F 60% 30.01 in 10.0 mi NNW 8.1 mph - N/A   Partly Cloudy
11:54 AM 81.0 °F 83.3 °F 66.9 °F 62% 30.00 in 10.0 mi NNW 3.5 mph - 0.00 in   Partly Cloudy
12:54 PM 82.9 °F 85.0 °F 66.0 °F 56% 29.97 in 10.0 mi North 5.8 mph - N/A   Partly Cloudy
1:54 PM 82.9 °F 84.6 °F 64.9 °F 54% 29.94 in 10.0 mi NNE 6.9 mph - N/A   Scattered Clouds
2:54 PM 82.9 °F 85.0 °F 66.0 °F 56% 29.91 in 10.0 mi NE 15.0 mph - N/A   Scattered Clouds
3:54 PM 82.9 °F 85.0 °F 66.0 °F 56% 29.91 in 10.0 mi NE 9.2 mph - N/A   Scattered Clouds
4:54 PM 80.1 °F 82.1 °F 66.0 °F 62% 29.91 in 10.0 mi ENE 5.8 mph - N/A   Scattered Clouds
5:54 PM 78.1 °F - 66.9 °F 68% 29.93 in 10.0 mi NE 8.1 mph - N/A   Scattered Clouds
6:54 PM 75.9 °F - 66.9 °F 74% 29.94 in 10.0 mi ENE 5.8 mph - N/A   Scattered Clouds
7:54 PM 75.0 °F - 68.0 °F 79% 29.96 in 10.0 mi NNE 5.8 mph - N/A   Partly Cloudy
8:54 PM 75.9 °F - 68.0 °F 76% 29.97 in 10.0 mi NNE 10.4 mph - N/A   Scattered Clouds
9:54 PM 72.0 °F - 66.9 °F 84% 29.96 in 10.0 mi NE 4.6 mph - N/A   Partly Cloudy
10:54 PM 73.0 °F - 66.9 °F 81% 29.95 in 10.0 mi ENE 3.5 mph - N/A   Scattered Clouds
11:54 PM 71.1 °F - 66.0 °F 84% 29.94 in 10.0 mi Variable 3.5 mph - N/A   Partly Cloudy